This is the latest recevied weather packets stored in our database for station/object WX9WTF. If no packets are shown the sender has not sent any weather packets the latest 10 day(s).
| Time | Temp. | Humidity | Pressure | Rain* | Wind** | Luminosity | Snow |
|---|---|---|---|---|---|---|---|
| 1778135843 | 6.67° C | 88% | 1018.8 hPa | 0 mm | - | 0 W/m² | - |
| 1778135540 | 6.67° C | 89% | 1019 hPa | 0 mm | - | 0 W/m² | - |
| 1778135236 | 6.67° C | 90% | 1018.7 hPa | 0 mm | - | 0 W/m² | - |
| 1778134934 | 6.11° C | 90% | 1018.9 hPa | 0 mm | - | 0 W/m² | - |
| 1778134632 | 6.11° C | 92% | 1019 hPa | 0 mm | - | 0 W/m² | - |
| 1778134330 | 6.11° C | 93% | 1018.8 hPa | 0 mm | - | 0 W/m² | - |
| 1778134028 | 6.11° C | 93% | 1018.8 hPa | 0 mm | - | 0 W/m² | - |
| 1778133724 | 5.56° C | 94% | 1018.9 hPa | 0 mm | - | 0 W/m² | - |
| 1778133420 | 5.56° C | 94% | 1019 hPa | 0 mm | - | 0 W/m² | - |
| 1778133116 | 5° C | 94% | 1018.8 hPa | 0 mm | - | 0 W/m² | - |
| 1778132811 | 5° C | 94% | 1018.9 hPa | 0 mm | - | 0 W/m² | - |
| 1778132509 | 5° C | 94% | 1018.9 hPa | 0 mm | - | 0 W/m² | - |
| 1778132206 | 5° C | 95% | 1018.9 hPa | 0 mm | - | 0 W/m² | - |
| 1778131905 | 5° C | 95% | 1018.9 hPa | 0 mm | - | 0 W/m² | - |
| 1778131602 | 5° C | 95% | 1018.8 hPa | 0 mm | - | 0 W/m² | - |
| 1778131298 | 5° C | 95% | 1018.7 hPa | 0 mm | - | 0 W/m² | - |
| 1778130996 | 4.44° C | 95% | 1018.8 hPa | 0 mm | - | 0 W/m² | - |
| 1778130687 | 3.89° C | 94% | 1018.8 hPa | 0 mm | - | 0 W/m² | - |
| 1778130384 | 3.89° C | 93% | 1018.8 hPa | 0 mm | - | 0 W/m² | - |
| 1778130081 | 3.89° C | 93% | 1018.8 hPa | 0 mm | - | 0 W/m² | - |
| 1778129777 | 4.44° C | 93% | 1018.8 hPa | 0 mm | - | 0 W/m² | - |
| 1778129469 | 5° C | 93% | 1019 hPa | 0 mm | - | 0 W/m² | - |
| 1778129165 | 5° C | 93% | 1019 hPa | 0 mm | - | 0 W/m² | - |
| 1778128863 | 5° C | 92% | 1018.9 hPa | 0 mm | - | 0 W/m² | - |
| 1778128558 | 5° C | 92% | 1018.8 hPa | 0 mm | - | 0 W/m² | - |
* Rain latest hour (hover to see other rain measurements)
** Current wind speed in m/s (hover to see current wind gust speed)